This is the latest recevied weather packets stored in our database for station/object DH1NAI-6. If no packets are shown the sender has not sent any weather packets the latest 10 day(s).
| Time | Temp. | Humidity | Pressure | Rain* | Wind** | Luminosity | Snow |
|---|---|---|---|---|---|---|---|
| 1777662868 | 6.11° C | 87% | 1022.9 hPa | 0 mm | - | 0 W/m² | - |
| 1777662259 | 7.22° C | 84% | 1023 hPa | 0 mm | - | 0 W/m² | - |
| 1777661635 | 8.33° C | 81% | 1023 hPa | 0 mm | - | 0 W/m² | - |
| 1777661011 | 8.89° C | 81% | 1023 hPa | 0 mm | - | 0 W/m² | - |
| 1777660403 | 9.44° C | 80% | 1022.8 hPa | 0 mm | - | 1 W/m² | - |
| 1777659796 | 10.56° C | 77% | 1022.8 hPa | 0 mm | - | 2 W/m² | - |
| 1777659187 | 12.78° C | 69% | 1022.8 hPa | 0 mm | - | 3 W/m² | - |
| 1777658579 | 13.89° C | 63% | 1022.5 hPa | 0 mm | - | 4 W/m² | - |
| 1777657971 | 16.11° C | 54% | 1022.7 hPa | 0 mm | - | 6 W/m² | - |
| 1777657364 | 17.22° C | 46% | 1022.6 hPa | 0 mm | - | 7 W/m² | - |
| 1777656751 | 17.22° C | 45% | 1022.4 hPa | 0 mm | - | 8 W/m² | - |
| 1777656147 | 17.78° C | 43% | 1022.7 hPa | 0 mm | - | 9 W/m² | - |
| 1777655539 | 17.78° C | 44% | 1022.6 hPa | 0 mm | - | 10 W/m² | - |
| 1777654915 | 17.78° C | 43% | 1022.5 hPa | 0 mm | - | 10 W/m² | - |
| 1777654292 | 18.33° C | 43% | 1022.8 hPa | 0 mm | - | 13 W/m² | - |
| 1777653683 | 18.33° C | 43% | 1022.7 hPa | 0 mm | - | 46 W/m² | - |
| 1777653059 | 18.33° C | 43% | 1022.8 hPa | 0 mm | - | 55 W/m² | - |
| 1777652435 | 18.33° C | 43% | 1022.7 hPa | 0 mm | - | 63 W/m² | - |
| 1777651827 | 19.44° C | 43% | 1023.1 hPa | 0 mm | - | 67 W/m² | - |
| 1777651203 | 18.89° C | 42% | 1022.9 hPa | 0 mm | - | 76 W/m² | - |
| 1777650579 | 18.89° C | 43% | 1023 hPa | 0 mm | - | 87 W/m² | - |
| 1777649971 | 18.89° C | 43% | 1023.1 hPa | 0 mm | - | 94 W/m² | - |
| 1777649363 | 18.89° C | 45% | 1023.1 hPa | 0 mm | - | 98 W/m² | - |
| 1777648755 | 19.44° C | 40% | 1023.3 hPa | 0 mm | - | 104 W/m² | - |
| 1777648147 | 18.89° C | 43% | 1023.4 hPa | 0 mm | - | 112 W/m² | - |
* Rain latest hour (hover to see other rain measurements)
** Current wind speed in m/s (hover to see current wind gust speed)